GW5149 Weather Reports


Display with metric or nautical units.
time (UTC)temp
F
wind
direction
speed
MPH
gust
MPH
rain 1hr
in
rain 24hr
in
rain mn
in
humidity
%
barometer
mb
20260507212025 52 0.0 2.0 0.00 0.00 0.00 80 1012.3
20260507211022 52 0.0 2.0 0.00 0.00 0.00 80 1012.5
20260507210020 52 0.0 2.0 0.00 0.00 0.00 79 1012.4
20260507205017 52 0.0 0.0 0.00 0.00 0.00 78 1012.1
20260507204015 53 0.0 0.0 0.00 0.00 0.00 78 1012.2
20260507203112 53 0.0 0.0 0.00 0.00 0.00 78 1012.0
20260507202110 53 0.0 2.0 0.00 0.00 0.00 79 1012.0
20260507201108 53 0.0 0.0 0.00 0.00 0.00 79 1011.9
20260507200106 52 0.0 0.0 0.00 0.00 0.00 78 1012.0
20260507195122 53 0.0 0.0 0.00 0.00 0.00 77 1011.8
20260507194120 53 0.0 2.0 0.00 0.00 0.00 76 1011.7
20260507193057 53 0.0 0.0 0.00 0.00 0.00 74 1011.6
20260507192054 53 0.0 2.0 0.00 0.00 0.00 74 1011.5
20260507191052 54 0.0 0.0 0.00 0.00 0.00 74 1011.4
20260507190050 54 0.0 0.0 0.00 0.00 0.00 74 1011.5
20260507185047 54 0.0 0.0 0.00 0.00 0.00 73 1011.4
20260507184044 54 0.0 2.0 0.00 0.00 0.00 73 1011.3
20260507183042 54 0.0 0.0 0.00 0.00 0.00 75 1011.3
20260507182039 53 0.0 2.0 0.00 0.00 0.00 76 1011.2
20260507181058 53 0.0 2.0 0.00 0.00 0.00 78 1011.3
20260507180035 53 0.0 0.0 0.00 0.00 0.00 78 1011.2
20260507175031 53 0.0 2.0 0.00 0.00 0.00 78 1011.2
20260507174029 53 0.0 0.0 0.00 0.00 0.00 79 1011.3
20260507173026 53 0.0 0.0 0.00 0.00 0.00 78 1011.5
20260507172024 53 0.0 0.0 0.00 0.00 0.00 78 1011.5
20260507171021 53 0.0 0.0 0.00 0.00 0.00 77 1011.7
20260507170020 53 0.0 0.0 0.00 0.00 0.00 76 1011.6
20260507165016 53 0.0 0.0 0.00 0.00 0.00 74 1011.9
20260507164134 54 0.0 0.0 0.00 0.00 0.00 70 1012.0
20260507163111 54 0.0 2.0 0.00 0.00 0.00 68 1012.0
20260507162110 55 0.0 0.0 0.00 0.00 0.00 68 1012.0
20260507161106 55 0.0 0.0 0.00 0.00 0.00 66 1011.9
20260507160103 55 0.0 0.0 0.00 0.00 0.00 67 1012.0
20260507155101 55 0.0 2.0 0.00 0.00 0.00 67 1012.0
20260507154057 55 0.0 0.0 0.00 0.00 0.00 66 1012.1
20260507153054 55 0.0 0.0 0.00 0.00 0.00 66 1012.2
20260507152112 55 0.0 2.0 0.00 0.00 0.00 66 1012.2
20260507151051 55 236 0.0 2.0 0.00 0.00 0.00 65 1011.9
20260507150048 56 203 0.0 2.0 0.00 0.00 0.00 64 1011.6
20260507145044 56 225 0.0 2.0 0.00 0.00 0.00 64 1011.8
20260507144041 56 225 0.0 2.0 0.00 0.00 0.00 64 1011.7
20260507143039 56 225 0.0 2.0 0.00 0.00 0.00 65 1012.1
20260507142036 56 246 0.0 2.0 0.00 0.00 0.00 66 1012.1
20260507141035 55 208 0.0 2.0 0.00 0.00 0.00 66 1012.0
20260507140031 55 232 0.0 2.0 0.00 0.00 0.00 67 1012.4
20260507135048 55 248 1.0 4.0 0.00 0.00 0.00 68 1012.1
20260507134026 55 219 0.0 2.0 0.00 0.00 0.00 67 1012.3
20260507133023 55 220 1.0 2.0 0.00 0.00 0.00 67 1012.2
20260507132022 55 236 1.0 2.0 0.00 0.00 0.00 67 1012.5
20260507131019 55 235 0.0 2.0 0.00 0.00 0.00 68 1012.4
20260507130015 54 236 0.0 2.0 0.00 0.00 0.00 68 1012.5
20260507125134 54 248 1.0 2.0 0.00 0.00 0.00 68 1012.8
20260507124112 54 225 0.0 2.0 0.00 0.00 0.00 69 1012.8
20260507123108 53 215 1.0 2.0 0.00 0.00 0.00 70 1012.9
20260507122107 52 0.0 2.0 0.00 0.00 0.00 72 1013.0
20260507121104 52 225 0.0 4.0 0.00 0.00 0.00 72 1013.6
20260507115052 51 248 0.0 2.0 0.00 0.00 0.00 72 1013.6
20260507114110 52 225 0.0 2.0 0.00 0.00 0.00 72 1013.3
20260507113048 52 210 0.0 2.0 0.00 0.00 0.00 73 1013.1
20260507112039 52 225 0.0 2.0 0.00 0.00 0.00 74 1013.0
20260507111038 52 234 0.0 4.0 0.00 0.00 0.00 74 1013.2
20260507110029 52 225 0.0 2.0 0.00 0.00 0.00 73 1013.1
20260507105025 53 225 0.0 2.0 0.00 0.00 0.00 71 1012.4
20260507104023 54 200 1.0 2.0 0.00 0.00 0.00 69 1012.4
20260507103114 53 232 1.0 2.0 0.00 0.00 0.00 69 1012.5
20260507102132 54 210 0.0 4.0 0.00 0.00 0.00 69 1012.6
20260507101104 53 230 1.0 4.0 0.00 0.00 0.00 70 1012.6
20260507095059 53 212 1.0 2.0 0.00 0.00 0.00 70 1011.4
20260507094111 53 216 1.0 4.0 0.00 0.00 0.00 72 1011.4
20260507093048 53 235 0.0 2.0 0.00 0.00 0.00 71 1011.4
20260507092040 53 251 0.0 4.0 0.00 0.00 0.00 72 1012.3
20260507091039 52 205 1.0 7.0 0.00 0.00 0.00 73 1012.8
20260507090035 51 231 1.0 4.0 0.00 0.00 0.00 75 1012.8
20260507085028 50 225 1.0 4.0 0.00 0.00 0.00 76 1012.9
20260507084024 50 236 0.0 2.0 0.00 0.00 0.00 76 1013.0
20260507083017 50 231 0.0 2.0 0.00 0.00 0.00 77 1012.9
20260507082114 50 243 1.0 2.0 0.00 0.00 0.00 77 1012.9
20260507081111 50 225 0.0 2.0 0.00 0.00 0.00 78 1013.0
20260507080104 49 225 0.0 2.0 0.00 0.00 0.00 78 1013.0
20260507075101 49 189 0.0 2.0 0.00 0.00 0.00 79 1012.8
20260507074051 48 244 1.0 4.0 0.00 0.00 0.00 79 1012.9
20260507073050 48 0.0 2.0 0.00 0.00 0.00 80 1012.8
20260507072106 48 0.0 2.0 0.00 0.00 0.00 80 1012.7
20260507071038 47 240 0.0 2.0 0.00 0.00 0.00 81 1012.9
20260507070036 47 225 0.0 2.0 0.00 0.00 0.00 81 1012.9
20260507065027 47 231 0.0 2.0 0.00 0.00 0.00 81 1012.9
20260507064024 47 224 0.0 2.0 0.00 0.00 0.00 81 1013.0
20260507063017 47 225 0.0 4.0 0.00 0.00 0.00 81 1012.9
20260507062115 46 225 0.0 4.0 0.00 0.00 0.00 81 1012.8
20260507061111 46 214 0.0 2.0 0.00 0.00 0.00 81 1012.9
20260507060104 46 214 0.0 2.0 0.00 0.00 0.00 82 1012.9
20260507055100 45 23 0.0 4.0 0.00 0.00 0.00 83 1012.7
20260507054052 45 236 0.0 2.0 0.00 0.00 0.00 83 1012.7
20260507053051 45 255 0.0 2.0 0.00 0.00 0.00 83 1012.6
20260507052047 45 270 0.0 4.0 0.00 0.00 0.00 83 1012.7
20260507051039 44 180 0.0 2.0 0.00 0.00 0.00 83 1012.7
20260507050036 44 225 0.0 2.0 0.00 0.00 0.00 83 1012.5
20260507045029 44 214 0.0 4.0 0.00 0.00 0.00 82 1012.6
20260507044046 44 236 0.0 4.0 0.00 0.00 0.00 82 1012.6
20260507043023 44 207 0.0 2.0 0.00 0.00 0.00 82 1012.5
20260507042116 44 45 0.0 2.0 0.00 0.00 0.00 81 1012.6
20260507041132 44 219 0.0 4.0 0.00 0.00 0.00 81 1012.5
20260507040105 45 215 1.0 4.0 0.00 0.00 0.00 80 1012.6
20260507035121 45 0.0 2.0 0.00 0.00 0.00 80 1012.6
20260507034058 45 216 1.0 2.0 0.00 0.00 0.00 79 1012.5
20260507033051 45 0.0 2.0 0.00 0.00 0.00 79 1012.6
20260507032108 46 180 0.0 2.0 0.00 0.00 0.00 78 1012.7
20260507031041 46 248 0.0 2.0 0.00 0.00 0.00 79 1012.6
20260507030057 46 214 0.0 2.0 0.00 0.00 0.00 79 1012.7
20260507025035 46 240 0.0 2.0 0.00 0.00 0.00 78 1012.8
20260507024027 46 263 0.0 2.0 0.00 0.00 0.00 78 1012.7
20260507023025 46 23 0.0 2.0 0.00 0.00 0.00 78 1012.8
20260507022017 46 219 0.0 4.0 0.00 0.00 0.00 78 1012.8
20260507021115 46 225 0.0 2.0 0.00 0.00 0.00 77 1012.9
20260507020111 46 230 0.0 4.0 0.00 0.00 0.00 77 1012.7
20260507015123 46 225 0.0 2.0 0.00 0.00 0.00 77 1013.0
20260507014101 46 252 0.0 2.0 0.00 0.00 0.00 77 1013.0
20260507013052 46 238 1.0 6.0 0.00 0.00 0.00 76 1013.0
20260507012049 46 13 0.0 4.0 0.00 0.00 0.00 76 1013.1
20260507011047 47 206 0.0 2.0 0.00 0.00 0.00 76 1013.0
20260507010039 47 233 1.0 6.0 0.00 0.00 0.00 75 1013.0
20260507005036 47 182 0.0 4.0 0.00 0.00 0.00 75 1013.0
20260507004028 47 347 0.0 7.0 0.00 0.00 0.00 75 1013.0
20260507003045 47 244 1.0 7.0 0.00 0.00 0.00 75 1013.0
20260507002023 47 225 0.0 2.0 0.00 0.00 0.00 75 1013.0
20260507001114 47 203 0.0 6.0 0.00 0.00 0.00 75 1013.0
20260507000112 47 249 0.0 4.0 0.00 0.00 0.00 75 1013.0
20260506235104 47 238 0.0 6.0 0.00 0.00 0.00 76 1013.1
20260506234102 46 247 1.0 8.0 0.00 0.00 0.00 76 1013.0
20260506233059 46 30 1.0 4.0 0.00 0.00 0.00 76 1013.0
20260506232050 46 79 0.0 4.0 0.00 0.00 0.00 77 1013.0
20260506231048 46 267 0.0 4.0 0.00 0.00 0.00 76 1013.1
20260506230040 46 0 0.0 2.0 0.00 0.00 0.00 76 1013.0
20260506225037 46 0.0 2.0 0.00 0.00 0.00 76 1013.1
20260506224035 46 45 0.0 2.0 0.00 0.00 0.00 76 1013.0
20260506223108 47 56 0.0 4.0 0.00 0.00 0.00 75 1012.9
20260506222025 47 6 0.0 2.0 0.00 0.00 0.00 74 1012.9
20260506221016 48 45 0.0 4.0 0.00 0.00 0.00 73 1012.9
20260506220114 48 39 1.0 6.0 0.00 0.00 0.00 73 1012.9
20260506215111 48 52 0.0 4.0 0.00 0.00 0.00 73 1012.9
20260506214104 48 180 0.0 2.0 0.00 0.00 0.00 73 1013.0
20260506213101 48 23 0.0 4.0 0.00 0.00 0.00 72 1012.8